This demonstration page uses our WeatherBlox Daily Observations layout. Learn more.

Left ArrowRight Arrow

41.86663, -103.66717

Hourly Observations for July 28, 2020

Temp ( °F °C ) Dew Point ( °F °C ) Humidity (%) Winds ( mph kmh ) Pressure ( in mb ) Visibility ( mi km ) Precip ( " mm )
12:53 am 00:53 Clear 75 23.9 60 15.6 60 60 SSE 12 19 29.93 1014 10 16 N/A
1:53 am 01:53 Clear 72 22.2 61 16.1 68 68 SE 10 17 29.92 1013 10 16 N/A
2:53 am 02:53 Clear 69 20.6 61 16.1 76 76 N N/A 29.91 1013 10 16 N/A
3:53 am 03:53 Clear 65 18.3 61 16.1 87 87 NE 5 7 29.90 1013 10 16 N/A
4:53 am 04:53 Clear 65 18.3 61 16.1 87 87 E 8 13 29.90 1013 10 16 N/A
5:53 am 05:53 Sunny 64 17.8 60 15.6 87 87 E 6 9 29.91 1013 10 16 N/A
6:53 am 06:53 Sunny 68 20 62 16.7 81 81 E 6 9 29.90 1013 10 16 N/A
7:53 am 07:53 Sunny 71 21.7 63 17.2 76 76 ESE 8 13 29.91 1013 10 16 N/A
8:53 am 08:53 Sunny 75 23.9 64 17.8 69 69 E 9 15 29.92 1013 10 16 N/A
9:53 am 09:53 Sunny 78 25.6 64 17.8 62 62 E 10 17 29.91 1013 10 16 N/A
10:53 am 10:53 Sunny 86 30 62 16.7 45 45 ESE 10 17 29.88 1012 10 16 N/A
11:53 am 11:53 Sunny 90 32.2 55 12.8 31 31 SSE 14 22 29.86 1011 10 16 N/A
12:53 pm 12:53 Mostly Sunny 88 31.1 54 12.2 31 31 SSE 13 20 29.85 1011 10 16 N/A
1:53 pm 13:53 Sunny 92 33.3 51 10.6 25 25 SE 10 17 29.83 1010 10 16 N/A
2:49 pm 14:49 Mostly Sunny 93 34 55 13 28 28 SSE 16 26 29.61 1003 10 16 N/A
2:53 pm 14:53 Mostly Sunny 90 32.2 54 12.2 29 29 SSE 10 17 29.80 1009 10 16 N/A
3:53 pm 15:53 Mostly Sunny 90 32.2 53 11.7 28 28 S 10 17 29.80 1009 10 16 N/A
4:53 pm 16:53 Mostly Cloudy 82 27.8 53 11.7 37 37 W 22 35 29.84 1011 10 16 N/A
6:53 pm 18:53 Cloudy 77 25 54 12.2 45 45 SW 7 11 29.87 1012 10 16 0.00 0.00
7:53 pm 19:53 Cloudy 74 23.3 59 15 60 60 S 6 9 29.86 1011 10 16 0.00 0.00
8:53 pm 20:53 Partly Cloudy 73 22.8 59 15 62 62 SSE 6 9 29.86 1011 10 16 N/A
9:53 pm 21:53 Clear 71 21.7 57 13.9 61 61 E 5 7 29.86 1011 10 16 N/A
10:53 pm 22:53 Clear 68 20 59 15 73 73 E 7 11 29.85 1011 10 16 N/A
11:53 pm 23:53 Clear 67 19.4 59 15 76 76 ESE 7 11 29.85 1011 10 16 N/A

Powered by AerisWeather